This demonstration page uses our WeatherBlox Daily Observations layout. Learn more.

Left ArrowRight Arrow

34.16533, -84.80231

Hourly Observations for March 21, 2022

Temp ( °F °C ) Dew Point ( °F °C ) Humidity (%) Winds ( mph kmh ) Pressure ( in mb ) Visibility ( mi km ) Precip ( " mm )
12:15 am 00:15 Clear 45 7 36 2 71 71 Calm 30.29 1026 10 16 0.00 0.00
12:35 am 00:35 Clear 45 7 36 2 71 71 Calm 30.29 1026 10 16 0.00 0.00
12:55 am 00:55 Clear 43 6 36 2 76 76 Calm 30.30 1026 10 16 0.00 0.00
1:15 am 01:15 Clear 43 6 37 3 81 81 Calm 30.29 1026 10 16 0.00 0.00
1:35 am 01:35 Clear 41 5 39 4 93 93 Calm 30.29 1026 10 16 0.00 0.00
1:55 am 01:55 Clear 41 5 37 3 87 87 Calm 30.29 1026 10 16 0.00 0.00
2:15 am 02:15 Clear 41 5 37 3 87 87 Calm 30.29 1026 10 16 0.00 0.00
2:35 am 02:35 Clear 41 5 36 2 81 81 Calm 30.30 1026 10 16 0.00 0.00
2:55 am 02:55 Clear 39 4 37 3 93 93 Calm 30.31 1026 10 16 0.00 0.00
3:15 am 03:15 Clear 41 5 36 2 81 81 Calm 30.30 1026 10 16 0.00 0.00
3:35 am 03:35 Clear 39 4 37 3 93 93 Calm 30.31 1026 10 16 0.00 0.00
3:55 am 03:55 Clear 37 3 36 2 93 93 Calm 30.31 1026 10 16 0.00 0.00
4:15 am 04:15 Clear 37 3 37 3 100 100 Calm 30.31 1026 10 16 0.00 0.00
4:35 am 04:35 Clear 37 3 36 2 93 93 Calm 30.31 1026 10 16 0.00 0.00
4:55 am 04:55 Clear 37 3 36 2 93 93 Calm 30.31 1026 10 16 0.00 0.00
5:15 am 05:15 Clear 37 3 36 2 93 93 Calm 30.31 1026 10 16 0.00 0.00
5:35 am 05:35 Clear 36 2 36 2 100 100 Calm 30.31 1027 10 16 0.00 0.00
5:55 am 05:55 Clear 36 2 36 2 100 100 ENE 3 6 30.31 1027 10 16 0.00 0.00
6:15 am 06:15 Clear 36 2 36 2 100 100 Calm 30.31 1027 10 16 0.00 0.00
6:35 am 06:35 Clear 36 2 36 2 100 100 Calm 30.31 1027 10 16 0.00 0.00
6:55 am 06:55 Clear 36 2 34 1 93 93 Calm 30.32 1027 10 16 0.00 0.00
7:15 am 07:15 Clear 36 2 34 1 93 93 Calm 30.32 1027 10 16 0.00 0.00
7:35 am 07:35 Clear 36 2 34 1 93 93 SE 3 6 30.33 1027 10 16 0.00 0.00
7:55 am 07:55 Sunny 36 2 34 1 93 93 Calm 30.34 1028 10 16 0.00 0.00
8:15 am 08:15 Sunny 36 2 34 1 93 93 Calm 30.34 1028 10 16 0.00 0.00
8:35 am 08:35 Sunny 37 3 36 2 93 93 Calm 30.34 1027 10 16 0.00 0.00
8:55 am 08:55 Sunny 39 4 37 3 93 93 Calm 30.35 1028 10 16 0.00 0.00
9:15 am 09:15 Sunny 41 5 39 4 93 93 Calm 30.35 1028 10 16 0.00 0.00
9:35 am 09:35 Sunny 45 7 39 4 81 81 Calm 30.35 1028 10 16 0.00 0.00
9:55 am 09:55 Sunny 48 9 41 5 76 76 E 5 7 30.35 1028 10 16 0.00 0.00
10:15 am 10:15 Sunny 50 10 41 5 71 71 Calm 30.35 1028 10 16 0.00 0.00
10:35 am 10:35 Sunny 54 12 41 5 63 63 VRB 5 7 30.34 1028 10 16 0.00 0.00
10:55 am 10:55 Sunny 57 14 37 3 48 48 ENE 6 9 30.35 1028 9 14 0.00 0.00
11:15 am 11:15 Sunny 61 16 36 2 39 39 ENE 6 9 30.33 1027 10 16 0.00 0.00
11:35 am 11:35 Sunny 63 17 34 1 34 34 E 7 11 30.33 1027 10 16 0.00 0.00
11:55 am 11:55 Sunny 64 18 32 0 30 30 VRB 5 7 30.32 1027 10 16 0.00 0.00
12:15 pm 12:15 Sunny 66 19 30 -1 26 26 ESE 9 15 30.31 1027 10 16 0.00 0.00
12:35 pm 12:35 Sunny 68 20 28 -2 23 23 SE 8 13 30.30 1026 10 16 0.00 0.00
12:55 pm 12:55 Sunny 68 20 28 -2 23 23 Calm 30.28 1025 10 16 0.00 0.00
1:15 pm 13:15 Sunny 68 20 30 -1 24 24 VRB 6 9 30.28 1025 10 16 0.00 0.00
1:35 pm 13:35 Sunny 70 21 28 -2 21 21 E 8 13 30.27 1025 10 16 0.00 0.00
1:55 pm 13:55 Sunny 70 21 27 -3 20 20 VRB 7 11 30.25 1024 10 16 0.00 0.00
2:15 pm 14:15 Sunny 72 22 27 -3 19 19 SSE 8 13 30.24 1024 10 16 0.00 0.00
2:35 pm 14:35 Sunny 70 21 27 -3 20 20 Calm 30.23 1024 10 16 0.00 0.00
2:55 pm 14:55 Sunny 72 22 27 -3 19 19 VRB 5 7 30.22 1023 10 16 0.00 0.00
3:15 pm 15:15 Sunny 72 22 28 -2 20 20 VRB 6 9 30.21 1023 10 16 0.00 0.00
3:35 pm 15:35 Sunny 72 22 25 -4 17 17 VRB 6 9 30.20 1023 10 16 0.00 0.00
3:55 pm 15:55 Sunny 73 23 25 -4 16 16 ESE 12 19 30.17 1022 10 16 0.00 0.00
4:15 pm 16:15 Sunny 73 23 25 -4 16 16 SSE 9 15 30.16 1021 10 16 0.00 0.00
4:35 pm 16:35 Sunny 75 24 27 -3 16 16 SE 8 13 30.15 1021 10 16 0.00 0.00
4:55 pm 16:55 Sunny 73 23 25 -4 16 16 SSE 13 20 30.14 1021 10 16 0.00 0.00
5:15 pm 17:15 Sunny 73 23 27 -3 17 17 SE 8 13 30.13 1020 10 16 0.00 0.00
5:35 pm 17:35 Sunny 73 23 27 -3 17 17 VRB 6 9 30.13 1020 10 16 0.00 0.00
5:55 pm 17:55 Sunny 73 23 27 -3 17 17 ESE 7 11 30.11 1020 10 16 0.00 0.00
6:15 pm 18:15 Sunny 73 23 27 -3 17 17 SE 9 15 30.11 1020 10 16 0.00 0.00
6:35 pm 18:35 Sunny 72 22 27 -3 19 19 VRB 7 11 30.12 1020 10 16 0.00 0.00
6:55 pm 18:55 Sunny 72 22 27 -3 19 19 ESE 6 9 30.12 1020 10 16 0.00 0.00
7:15 pm 19:15 Sunny 70 21 28 -2 21 21 VRB 3 6 30.11 1020 10 16 0.00 0.00
7:35 pm 19:35 Sunny 70 21 28 -2 21 21 VRB 5 7 30.11 1020 10 16 0.00 0.00
7:55 pm 19:55 Clear 68 20 28 -2 23 23 E 5 7 30.10 1019 10 16 0.00 0.00
8:15 pm 20:15 Clear 66 19 28 -2 24 24 SE 5 7 30.11 1020 10 16 0.00 0.00
8:35 pm 20:35 Clear 66 19 28 -2 24 24 SE 3 6 30.11 1020 10 16 0.00 0.00
8:55 pm 20:55 Mostly Clear 63 17 32 0 32 32 Calm 30.13 1020 10 16 0.00 0.00
9:15 pm 21:15 Partly Cloudy 61 16 32 0 34 34 E 3 6 30.13 1020 10 16 0.00 0.00
9:35 pm 21:35 Clear 59 15 34 1 39 39 E 3 6 30.15 1021 10 16 0.00 0.00
9:55 pm 21:55 Mostly Clear 59 15 32 0 36 36 Calm 30.15 1021 10 16 0.00 0.00
10:15 pm 22:15 Clear 57 14 34 1 41 41 E 3 6 30.15 1021 10 16 0.00 0.00
10:35 pm 22:35 Clear 55 13 34 1 44 44 Calm 30.16 1021 10 16 0.00 0.00
10:55 pm 22:55 Clear 55 13 36 2 47 47 E 3 6 30.15 1021 10 16 0.00 0.00
11:15 pm 23:15 Clear 55 13 36 2 47 47 E 3 6 30.15 1021 10 16 0.00 0.00
11:35 pm 23:35 Clear 57 14 34 1 41 41 ESE 6 9 30.15 1021 10 16 0.00 0.00
11:55 pm 23:55 Clear 55 13 34 1 44 44 Calm 30.14 1021 10 16 0.00 0.00

Powered by AerisWeather